Year,Month,Day,Hour,Minute,Value (Times are PST for insolation in W/m^2)
2017,11,20,00,00,0.00
2017,11,20,00,01,0.00
2017,11,20,00,02,0.00
2017,11,20,00,03,0.00
2017,11,20,00,04,0.00
2017,11,20,00,05,0.00
2017,11,20,00,06,0.00
2017,11,20,00,07,0.00
2017,11,20,00,08,0.00
2017,11,20,00,09,0.00
2017,11,20,00,10,0.00
2017,11,20,00,11,0.00
2017,11,20,00,12,0.00
2017,11,20,00,13,0.00
2017,11,20,00,14,0.00
2017,11,20,00,15,0.00
2017,11,20,00,16,0.00
2017,11,20,00,17,0.00
2017,11,20,00,18,0.00
2017,11,20,00,19,0.00
2017,11,20,00,20,0.00
2017,11,20,00,21,0.00
2017,11,20,00,22,0.00
2017,11,20,00,23,0.00
2017,11,20,00,24,0.00
2017,11,20,00,25,0.00
2017,11,20,00,26,0.00
2017,11,20,00,27,0.00
2017,11,20,00,28,0.00
2017,11,20,00,29,0.00
2017,11,20,00,30,0.00
2017,11,20,00,31,0.00
2017,11,20,00,32,0.00
2017,11,20,00,33,0.00
2017,11,20,00,34,0.00
2017,11,20,00,35,0.00
2017,11,20,00,36,0.00
2017,11,20,00,37,0.00
2017,11,20,00,38,0.00
2017,11,20,00,39,0.00
2017,11,20,00,40,0.00
2017,11,20,00,41,0.00
2017,11,20,00,42,0.00
2017,11,20,00,43,0.00
2017,11,20,00,44,0.00
2017,11,20,00,45,0.00
2017,11,20,00,46,0.00
2017,11,20,00,47,0.00
2017,11,20,00,48,0.00
2017,11,20,00,49,0.00
2017,11,20,00,50,0.00
2017,11,20,00,51,0.00
2017,11,20,00,52,0.00
2017,11,20,00,53,0.00
2017,11,20,00,54,0.00
2017,11,20,00,55,0.00
2017,11,20,00,56,0.00
2017,11,20,00,57,0.00
2017,11,20,00,58,0.00
2017,11,20,00,59,0.00
2017,11,20,01,00,0.00
2017,11,20,01,01,0.00
2017,11,20,01,02,0.00
2017,11,20,01,03,0.00
2017,11,20,01,04,0.00
2017,11,20,01,05,0.00
2017,11,20,01,06,0.00
2017,11,20,01,07,0.00
2017,11,20,01,08,0.00
2017,11,20,01,09,0.00
2017,11,20,01,10,0.00
2017,11,20,01,11,0.00
2017,11,20,01,12,0.00
2017,11,20,01,13,0.00
2017,11,20,01,14,0.00
2017,11,20,01,15,0.00
2017,11,20,01,16,0.00
2017,11,20,01,17,0.00
2017,11,20,01,18,0.00
2017,11,20,01,19,0.00
2017,11,20,01,20,0.00
2017,11,20,01,21,0.00
2017,11,20,01,22,0.00
2017,11,20,01,23,0.00
2017,11,20,01,24,0.00
2017,11,20,01,25,0.00
2017,11,20,01,26,0.00
2017,11,20,01,27,0.00
2017,11,20,01,28,0.00
2017,11,20,01,29,0.00
2017,11,20,01,30,0.00
2017,11,20,01,31,0.00
2017,11,20,01,32,0.00
2017,11,20,01,33,0.00
2017,11,20,01,34,0.00
2017,11,20,01,35,0.00
2017,11,20,01,36,0.00
2017,11,20,01,37,0.00
2017,11,20,01,38,0.00
2017,11,20,01,39,0.00
2017,11,20,01,40,0.00
2017,11,20,01,41,0.00
2017,11,20,01,42,0.00
2017,11,20,01,43,0.00
2017,11,20,01,44,0.00
2017,11,20,01,45,0.00
2017,11,20,01,46,0.00
2017,11,20,01,47,0.00
2017,11,20,01,48,0.00
2017,11,20,01,49,0.00
2017,11,20,01,50,0.00
2017,11,20,01,51,0.00
2017,11,20,01,52,0.00
2017,11,20,01,53,0.00
2017,11,20,01,54,0.00
2017,11,20,01,55,0.00
2017,11,20,01,56,0.00
2017,11,20,01,57,0.00
2017,11,20,01,58,0.00
2017,11,20,01,59,0.00
2017,11,20,02,00,0.00
2017,11,20,02,01,0.00
2017,11,20,02,02,0.00
2017,11,20,02,03,0.00
2017,11,20,02,04,0.00
2017,11,20,02,05,0.00
2017,11,20,02,06,0.00
2017,11,20,02,07,0.00
2017,11,20,02,08,0.00
2017,11,20,02,09,0.00
2017,11,20,02,10,0.00
2017,11,20,02,11,0.00
2017,11,20,02,12,0.00
2017,11,20,02,13,0.00
2017,11,20,02,14,0.00
2017,11,20,02,15,0.00
2017,11,20,02,16,0.00
2017,11,20,02,17,0.00
2017,11,20,02,18,0.00
2017,11,20,02,19,0.00
2017,11,20,02,20,0.00
2017,11,20,02,21,0.00
2017,11,20,02,22,0.00
2017,11,20,02,23,0.00
2017,11,20,02,24,0.00
2017,11,20,02,25,0.00
2017,11,20,02,26,0.00
2017,11,20,02,27,0.00
2017,11,20,02,28,0.00
2017,11,20,02,29,0.00
2017,11,20,02,30,0.00
2017,11,20,02,31,0.00
2017,11,20,02,32,0.00
2017,11,20,02,33,0.00
2017,11,20,02,34,0.00
2017,11,20,02,35,0.00
2017,11,20,02,36,0.00
2017,11,20,02,37,0.00
2017,11,20,02,38,0.00
2017,11,20,02,39,0.00
2017,11,20,02,40,0.00
2017,11,20,02,41,0.00
2017,11,20,02,42,0.00
2017,11,20,02,43,0.00
2017,11,20,02,44,0.00
2017,11,20,02,45,0.00
2017,11,20,02,46,0.00
2017,11,20,02,47,0.00
2017,11,20,02,48,0.00
2017,11,20,02,49,0.00
2017,11,20,02,50,0.00
2017,11,20,02,51,0.00
2017,11,20,02,52,0.00
2017,11,20,02,53,0.00
2017,11,20,02,54,0.00
2017,11,20,02,55,0.00
2017,11,20,02,56,0.00
2017,11,20,02,57,0.00
2017,11,20,02,58,0.00
2017,11,20,02,59,0.00
2017,11,20,03,00,0.00
2017,11,20,03,01,0.00
2017,11,20,03,02,0.00
2017,11,20,03,03,0.00
2017,11,20,03,04,0.00
2017,11,20,03,05,0.00
2017,11,20,03,06,0.00
2017,11,20,03,07,0.00
2017,11,20,03,08,0.00
2017,11,20,03,09,0.00
2017,11,20,03,10,0.00
2017,11,20,03,11,0.00
2017,11,20,03,12,0.00
2017,11,20,03,13,0.00
2017,11,20,03,14,0.00
2017,11,20,03,15,0.00
2017,11,20,03,16,0.00
2017,11,20,03,17,0.00
2017,11,20,03,18,0.00
2017,11,20,03,19,0.00
2017,11,20,03,20,0.00
2017,11,20,03,21,0.00
2017,11,20,03,22,0.00
2017,11,20,03,23,0.00
2017,11,20,03,24,0.00
2017,11,20,03,25,0.00
2017,11,20,03,26,0.00
2017,11,20,03,27,0.00
2017,11,20,03,28,0.00
2017,11,20,03,29,0.00
2017,11,20,03,30,0.00
2017,11,20,03,31,0.00
2017,11,20,03,32,0.00
2017,11,20,03,33,0.00
2017,11,20,03,34,0.00
2017,11,20,03,35,0.00
2017,11,20,03,36,0.00
2017,11,20,03,37,0.00
2017,11,20,03,38,0.00
2017,11,20,03,39,0.00
2017,11,20,03,40,0.00
2017,11,20,03,41,0.00
2017,11,20,03,42,0.00
2017,11,20,03,43,0.00
2017,11,20,03,44,0.00
2017,11,20,03,45,0.00
2017,11,20,03,46,0.00
2017,11,20,03,47,0.00
2017,11,20,03,48,0.00
2017,11,20,03,49,0.00
2017,11,20,03,50,0.00
2017,11,20,03,51,0.00
2017,11,20,03,52,0.00
2017,11,20,03,53,0.00
2017,11,20,03,54,0.00
2017,11,20,03,55,0.00
2017,11,20,03,56,0.00
2017,11,20,03,57,0.00
2017,11,20,03,58,0.00
2017,11,20,03,59,0.00
2017,11,20,04,00,0.00
2017,11,20,04,01,0.00
2017,11,20,04,02,0.00
2017,11,20,04,03,0.00
2017,11,20,04,04,0.00
2017,11,20,04,05,0.00
2017,11,20,04,06,0.00
2017,11,20,04,07,0.00
2017,11,20,04,08,0.00
2017,11,20,04,09,0.00
2017,11,20,04,10,0.00
2017,11,20,04,11,0.00
2017,11,20,04,12,0.00
2017,11,20,04,13,0.00
2017,11,20,04,14,0.00
2017,11,20,04,15,0.00
2017,11,20,04,16,0.00
2017,11,20,04,17,0.00
2017,11,20,04,18,0.00
2017,11,20,04,19,0.00
2017,11,20,04,20,0.00
2017,11,20,04,21,0.00
2017,11,20,04,22,0.00
2017,11,20,04,23,0.00
2017,11,20,04,24,0.00
2017,11,20,04,25,0.00
2017,11,20,04,26,0.00
2017,11,20,04,27,0.00
2017,11,20,04,28,0.00
2017,11,20,04,29,0.00
2017,11,20,04,30,0.00
2017,11,20,04,31,0.00
2017,11,20,04,32,0.00
2017,11,20,04,33,0.00
2017,11,20,04,34,0.00
2017,11,20,04,35,0.00
2017,11,20,04,36,0.00
2017,11,20,04,37,0.00
2017,11,20,04,38,0.00
2017,11,20,04,39,0.00
2017,11,20,04,40,0.00
2017,11,20,04,41,0.00
2017,11,20,04,42,0.00
2017,11,20,04,43,0.00
2017,11,20,04,44,0.00
2017,11,20,04,45,0.00
2017,11,20,04,46,0.00
2017,11,20,04,47,0.00
2017,11,20,04,48,0.00
2017,11,20,04,49,0.00
2017,11,20,04,50,0.00
2017,11,20,04,51,0.00
2017,11,20,04,52,0.00
2017,11,20,04,53,0.00
2017,11,20,04,54,0.00
2017,11,20,04,55,0.00
2017,11,20,04,56,0.00
2017,11,20,04,57,0.00
2017,11,20,04,58,0.00
2017,11,20,04,59,0.00
2017,11,20,05,00,0.00
2017,11,20,05,01,0.00
2017,11,20,05,02,0.00
2017,11,20,05,03,0.00
2017,11,20,05,04,0.00
2017,11,20,05,05,0.00
2017,11,20,05,06,0.00
2017,11,20,05,07,0.00
2017,11,20,05,08,0.00
2017,11,20,05,09,0.00
2017,11,20,05,10,0.00
2017,11,20,05,11,0.00
2017,11,20,05,12,0.00
2017,11,20,05,13,0.00
2017,11,20,05,14,0.00
2017,11,20,05,15,0.00
2017,11,20,05,16,0.00
2017,11,20,05,17,0.00
2017,11,20,05,18,0.00
2017,11,20,05,19,0.00
2017,11,20,05,20,0.00
2017,11,20,05,21,0.00
2017,11,20,05,22,0.00
2017,11,20,05,23,0.00
2017,11,20,05,24,0.00
2017,11,20,05,25,0.00
2017,11,20,05,26,0.00
2017,11,20,05,27,0.00
2017,11,20,05,28,0.00
2017,11,20,05,29,0.00
2017,11,20,05,30,0.00
2017,11,20,05,31,0.00
2017,11,20,05,32,0.00
2017,11,20,05,33,0.00
2017,11,20,05,34,0.00
2017,11,20,05,35,0.00
2017,11,20,05,36,0.00
2017,11,20,05,37,0.00
2017,11,20,05,38,0.00
2017,11,20,05,39,0.00
2017,11,20,05,40,0.00
2017,11,20,05,41,0.00
2017,11,20,05,42,0.00
2017,11,20,05,43,0.00
2017,11,20,05,44,0.00
2017,11,20,05,45,0.00
2017,11,20,05,46,0.00
2017,11,20,05,47,0.00
2017,11,20,05,48,0.00
2017,11,20,05,49,0.00
2017,11,20,05,50,0.00
2017,11,20,05,51,0.00
2017,11,20,05,52,0.00
2017,11,20,05,53,0.00
2017,11,20,05,54,0.00
2017,11,20,05,55,0.00
2017,11,20,05,56,0.00
2017,11,20,05,57,0.00
2017,11,20,05,58,0.00
2017,11,20,05,59,0.00
2017,11,20,06,00,0.00
2017,11,20,06,01,0.00
2017,11,20,06,02,0.00
2017,11,20,06,03,0.00
2017,11,20,06,04,0.00
2017,11,20,06,05,0.00
2017,11,20,06,06,0.00
2017,11,20,06,07,0.00
2017,11,20,06,08,0.00
2017,11,20,06,09,0.00
2017,11,20,06,10,0.00
2017,11,20,06,11,0.00
2017,11,20,06,12,0.00
2017,11,20,06,13,0.00
2017,11,20,06,14,0.00
2017,11,20,06,15,0.00
2017,11,20,06,16,0.00
2017,11,20,06,17,0.00
2017,11,20,06,18,0.00
2017,11,20,06,19,0.00
2017,11,20,06,20,0.00
2017,11,20,06,21,0.00
2017,11,20,06,22,0.00
2017,11,20,06,23,0.00
2017,11,20,06,24,0.00
2017,11,20,06,25,0.00
2017,11,20,06,26,0.00
2017,11,20,06,27,0.00
2017,11,20,06,28,0.00
2017,11,20,06,29,0.00
2017,11,20,06,30,0.00
2017,11,20,06,31,0.00
2017,11,20,06,32,0.00
2017,11,20,06,33,0.00
2017,11,20,06,34,0.00
2017,11,20,06,35,0.00
2017,11,20,06,36,0.00
2017,11,20,06,37,0.00
2017,11,20,06,38,0.00
2017,11,20,06,39,0.00
2017,11,20,06,40,0.00
2017,11,20,06,41,0.00
2017,11,20,06,42,0.00
2017,11,20,06,43,0.00
2017,11,20,06,44,0.00
2017,11,20,06,45,0.00
2017,11,20,06,46,0.00
2017,11,20,06,47,0.00
2017,11,20,06,48,0.00
2017,11,20,06,49,0.00
2017,11,20,06,50,0.00
2017,11,20,06,51,0.00
2017,11,20,06,52,0.00
2017,11,20,06,53,0.00
2017,11,20,06,54,0.00
2017,11,20,06,55,0.00
2017,11,20,06,56,0.00
2017,11,20,06,57,0.00
2017,11,20,06,58,0.00
2017,11,20,06,59,0.00
2017,11,20,07,00,0.00
2017,11,20,07,01,0.00
2017,11,20,07,02,0.00
2017,11,20,07,03,0.00
2017,11,20,07,04,0.00
2017,11,20,07,05,0.00
2017,11,20,07,06,0.00
2017,11,20,07,07,0.00
2017,11,20,07,08,0.00
2017,11,20,07,09,0.00
2017,11,20,07,10,0.00
2017,11,20,07,11,0.00
2017,11,20,07,12,0.00
2017,11,20,07,13,0.00
2017,11,20,07,14,0.00
2017,11,20,07,15,0.00
2017,11,20,07,16,0.00
2017,11,20,07,17,0.00
2017,11,20,07,18,0.00
2017,11,20,07,19,0.00
2017,11,20,07,20,0.00
2017,11,20,07,21,0.00
2017,11,20,07,22,0.00
2017,11,20,07,23,0.00
2017,11,20,07,24,0.00
2017,11,20,07,25,0.00
2017,11,20,07,26,0.00
2017,11,20,07,27,0.00
2017,11,20,07,28,0.00
2017,11,20,07,29,0.00
2017,11,20,07,30,0.00
2017,11,20,07,31,0.00
2017,11,20,07,32,0.00
2017,11,20,07,33,0.00
2017,11,20,07,34,0.00
2017,11,20,07,35,0.00
2017,11,20,07,36,0.00
2017,11,20,07,37,0.00
2017,11,20,07,38,0.00
2017,11,20,07,39,0.00
2017,11,20,07,40,0.00
2017,11,20,07,41,0.00
2017,11,20,07,42,0.00
2017,11,20,07,43,0.00
2017,11,20,07,44,0.00
2017,11,20,07,45,0.00
2017,11,20,07,46,0.00
2017,11,20,07,47,0.00
2017,11,20,07,48,0.00
2017,11,20,07,49,0.00
2017,11,20,07,50,0.00
2017,11,20,07,51,0.00
2017,11,20,07,52,0.00
2017,11,20,07,53,0.00
2017,11,20,07,54,0.00
2017,11,20,07,55,1.20
2017,11,20,07,56,5.00
2017,11,20,07,57,5.00
2017,11,20,07,58,6.30
2017,11,20,07,59,7.00
2017,11,20,08,00,7.00
2017,11,20,08,01,7.30
2017,11,20,08,02,9.00
2017,11,20,08,03,9.00
2017,11,20,08,04,9.00
2017,11,20,08,05,10.30
2017,11,20,08,06,11.00
2017,11,20,08,07,11.00
2017,11,20,08,08,11.00
2017,11,20,08,09,11.00
2017,11,20,08,10,11.40
2017,11,20,08,11,12.00
2017,11,20,08,12,12.00
2017,11,20,08,13,12.00
2017,11,20,08,14,12.00
2017,11,20,08,15,12.00
2017,11,20,08,16,12.00
2017,11,20,08,17,12.80
2017,11,20,08,18,14.00
2017,11,20,08,19,14.00
2017,11,20,08,20,15.50
2017,11,20,08,21,16.00
2017,11,20,08,22,16.00
2017,11,20,08,23,16.00
2017,11,20,08,24,16.00
2017,11,20,08,25,16.00
2017,11,20,08,26,16.00
2017,11,20,08,27,17.60
2017,11,20,08,28,18.00
2017,11,20,08,29,18.10
2017,11,20,08,30,19.00
2017,11,20,08,31,19.00
2017,11,20,08,32,20.00
2017,11,20,08,33,21.00
2017,11,20,08,34,22.50
2017,11,20,08,35,23.00
2017,11,20,08,36,25.00
2017,11,20,08,37,25.00
2017,11,20,08,38,25.40
2017,11,20,08,39,26.00
2017,11,20,08,40,26.00
2017,11,20,08,41,26.00
2017,11,20,08,42,27.80
2017,11,20,08,43,28.30
2017,11,20,08,44,30.60
2017,11,20,08,45,32.40
2017,11,20,08,46,33.00
2017,11,20,08,47,34.30
2017,11,20,08,48,35.00
2017,11,20,08,49,36.80
2017,11,20,08,50,37.30
2017,11,20,08,51,39.20
2017,11,20,08,52,40.00
2017,11,20,08,53,41.00
2017,11,20,08,54,43.20
2017,11,20,08,55,44.00
2017,11,20,08,56,44.00
2017,11,20,08,57,46.00
2017,11,20,08,58,46.00
2017,11,20,08,59,46.00
2017,11,20,09,00,46.00
2017,11,20,09,01,46.60
2017,11,20,09,02,48.50
2017,11,20,09,03,49.10
2017,11,20,09,04,51.30
2017,11,20,09,05,53.30
2017,11,20,09,06,54.80
2017,11,20,09,07,56.00
2017,11,20,09,08,56.00
2017,11,20,09,09,57.60
2017,11,20,09,10,58.00
2017,11,20,09,11,58.00
2017,11,20,09,12,58.00
2017,11,20,09,13,58.00
2017,11,20,09,14,58.00
2017,11,20,09,15,58.00
2017,11,20,09,16,58.00
2017,11,20,09,17,58.00
2017,11,20,09,18,58.00
2017,11,20,09,19,58.00
2017,11,20,09,20,58.00
2017,11,20,09,21,58.00
2017,11,20,09,22,60.60
2017,11,20,09,23,62.00
2017,11,20,09,24,62.90
2017,11,20,09,25,65.30
2017,11,20,09,26,67.00
2017,11,20,09,27,67.80
2017,11,20,09,28,69.00
2017,11,20,09,29,67.70
2017,11,20,09,30,67.00
2017,11,20,09,31,65.20
2017,11,20,09,32,63.00
2017,11,20,09,33,63.00
2017,11,20,09,34,63.00
2017,11,20,09,35,63.00
2017,11,20,09,36,64.30
2017,11,20,09,37,65.00
2017,11,20,09,38,65.00
2017,11,20,09,39,67.00
2017,11,20,09,40,67.00
2017,11,20,09,41,67.00
2017,11,20,09,42,67.00
2017,11,20,09,43,67.00
2017,11,20,09,44,67.00
2017,11,20,09,45,66.90
2017,11,20,09,46,65.00
2017,11,20,09,47,65.00
2017,11,20,09,48,65.00
2017,11,20,09,49,65.00
2017,11,20,09,50,66.30
2017,11,20,09,51,67.00
2017,11,20,09,52,68.80
2017,11,20,09,53,69.00
2017,11,20,09,54,69.30
2017,11,20,09,55,70.00
2017,11,20,09,56,70.00
2017,11,20,09,57,71.30
2017,11,20,09,58,72.00
2017,11,20,09,59,73.80
2017,11,20,10,00,74.40
2017,11,20,10,01,77.60
2017,11,20,10,02,79.80
2017,11,20,10,03,81.00
2017,11,20,10,04,82.20
2017,11,20,10,05,83.00
2017,11,20,10,06,83.90
2017,11,20,10,07,84.00
2017,11,20,10,08,84.60
2017,11,20,10,09,87.60
2017,11,20,10,10,90.50
2017,11,20,10,11,93.60
2017,11,20,10,12,96.60
2017,11,20,10,13,97.00
2017,11,20,10,14,98.30
2017,11,20,10,15,100.00
2017,11,20,10,16,99.20
2017,11,20,10,17,98.00
2017,11,20,10,18,98.00
2017,11,20,10,19,98.00
2017,11,20,10,20,98.00
2017,11,20,10,21,98.00
2017,11,20,10,22,98.60
2017,11,20,10,23,100.80
2017,11,20,10,24,102.00
2017,11,20,10,25,103.30
2017,11,20,10,26,104.80
2017,11,20,10,27,106.80
2017,11,20,10,28,107.30
2017,11,20,10,29,109.00
2017,11,20,10,30,109.80
2017,11,20,10,31,111.00
2017,11,20,10,32,112.30
2017,11,20,10,33,113.80
2017,11,20,10,34,115.90
2017,11,20,10,35,118.30
2017,11,20,10,36,120.00
2017,11,20,10,37,120.40
2017,11,20,10,38,122.00
2017,11,20,10,39,123.00
2017,11,20,10,40,124.50
2017,11,20,10,41,127.70
2017,11,20,10,42,128.00
2017,11,20,10,43,129.80
2017,11,20,10,44,135.80
2017,11,20,10,45,139.10
2017,11,20,10,46,142.90
2017,11,20,10,47,144.00
2017,11,20,10,48,148.60
2017,11,20,10,49,151.30
2017,11,20,10,50,153.60
2017,11,20,10,51,155.00
2017,11,20,10,52,155.00
2017,11,20,10,53,155.00
2017,11,20,10,54,155.00
2017,11,20,10,55,155.00
2017,11,20,10,56,154.70
2017,11,20,10,57,152.40
2017,11,20,10,58,149.80
2017,11,20,10,59,145.90
2017,11,20,11,00,140.70
2017,11,20,11,01,135.10
2017,11,20,11,02,128.40
2017,11,20,11,03,122.10
2017,11,20,11,04,116.60
2017,11,20,11,05,110.00
2017,11,20,11,06,105.00
2017,11,20,11,07,100.50
2017,11,20,11,08,97.20
2017,11,20,11,09,95.10
2017,11,20,11,10,92.70
2017,11,20,11,11,91.00
2017,11,20,11,12,91.00
2017,11,20,11,13,91.00
2017,11,20,11,14,92.30
2017,11,20,11,15,94.60
2017,11,20,11,16,96.90
2017,11,20,11,17,100.30
2017,11,20,11,18,102.80
2017,11,20,11,19,106.60
2017,11,20,11,20,111.10
2017,11,20,11,21,116.30
2017,11,20,11,22,120.30
2017,11,20,11,23,127.70
2017,11,20,11,24,140.70
2017,11,20,11,25,151.00
2017,11,20,11,26,160.50
2017,11,20,11,27,176.00
2017,11,20,11,28,189.50
2017,11,20,11,29,197.00
2017,11,20,11,30,224.30
2017,11,20,11,31,288.00
2017,11,20,11,32,288.00
2017,11,20,11,33,327.30
2017,11,20,11,34,358.00
2017,11,20,11,35,298.50
2017,11,20,11,36,266.60
2017,11,20,11,37,261.80
2017,11,20,11,38,252.30
2017,11,20,11,39,233.00
2017,11,20,11,40,225.00
2017,11,20,11,41,215.40
2017,11,20,11,42,203.70
2017,11,20,11,43,202.00
2017,11,20,11,44,208.50
2017,11,20,11,45,223.30
2017,11,20,11,46,230.20
2017,11,20,11,47,248.30
2017,11,20,11,48,255.00
2017,11,20,11,49,261.40
2017,11,20,11,50,255.90
2017,11,20,11,51,253.00
2017,11,20,11,52,253.00
2017,11,20,11,53,298.50
2017,11,20,11,54,425.10
2017,11,20,11,55,437.00
2017,11,20,11,56,438.00
2017,11,20,11,57,438.00
2017,11,20,11,58,406.50
2017,11,20,11,59,395.00
2017,11,20,12,00,355.60
2017,11,20,12,01,337.00
2017,11,20,12,02,371.00
2017,11,20,12,03,368.40
2017,11,20,12,04,348.10
2017,11,20,12,05,366.70
2017,11,20,12,06,380.00
2017,11,20,12,07,380.00
2017,11,20,12,08,380.00
2017,11,20,12,09,380.00
2017,11,20,12,10,380.00
2017,11,20,12,11,167.60
2017,11,20,12,12,125.10
2017,11,20,12,13,128.00
2017,11,20,12,14,128.00
2017,11,20,12,15,146.20
2017,11,20,12,16,172.00
2017,11,20,12,17,172.00
2017,11,20,12,18,172.00
2017,11,20,12,19,176.00
2017,11,20,12,20,287.00
2017,11,20,12,21,314.90
2017,11,20,12,22,383.90
2017,11,20,12,23,357.10
2017,11,20,12,24,339.00
2017,11,20,12,25,206.60
2017,11,20,12,26,172.00
2017,11,20,12,27,172.00
2017,11,20,12,28,172.00
2017,11,20,12,29,172.00
2017,11,20,12,30,287.20
2017,11,20,12,31,400.80
2017,11,20,12,32,408.00
2017,11,20,12,33,155.30
2017,11,20,12,34,163.10
2017,11,20,12,35,401.00
2017,11,20,12,36,401.00
2017,11,20,12,37,401.00
2017,11,20,12,38,401.00
2017,11,20,12,39,401.00
2017,11,20,12,40,394.70
2017,11,20,12,41,394.00
2017,11,20,12,42,338.30
2017,11,20,12,43,199.00
2017,11,20,12,44,183.50
2017,11,20,12,45,190.20
2017,11,20,12,46,202.00
2017,11,20,12,47,215.00
2017,11,20,12,48,574.70
2017,11,20,12,49,549.90
2017,11,20,12,50,527.00
2017,11,20,12,51,527.00
2017,11,20,12,52,557.10
2017,11,20,12,53,557.20
2017,11,20,12,54,552.00
2017,11,20,12,55,519.40
2017,11,20,12,56,316.00
2017,11,20,12,57,303.00
2017,11,20,12,58,278.30
2017,11,20,12,59,272.10
2017,11,20,13,00,266.40
2017,11,20,13,01,271.00
2017,11,20,13,02,277.60
2017,11,20,13,03,343.00
2017,11,20,13,04,343.00
2017,11,20,13,05,343.00
2017,11,20,13,06,469.40
2017,11,20,13,07,517.10
2017,11,20,13,08,430.80
2017,11,20,13,09,357.00
2017,11,20,13,10,357.00
2017,11,20,13,11,292.90
2017,11,20,13,12,213.90
2017,11,20,13,13,238.80
2017,11,20,13,14,271.40
2017,11,20,13,15,278.00
2017,11,20,13,16,303.70
2017,11,20,13,17,463.20
2017,11,20,13,18,458.60
2017,11,20,13,19,449.80
2017,11,20,13,20,437.80
2017,11,20,13,21,434.00
2017,11,20,13,22,421.20
2017,11,20,13,23,410.10
2017,11,20,13,24,395.40
2017,11,20,13,25,391.50
2017,11,20,13,26,388.00
2017,11,20,13,27,373.10
2017,11,20,13,28,327.90
2017,11,20,13,29,336.60
2017,11,20,13,30,338.00
2017,11,20,13,31,269.90
2017,11,20,13,32,97.30
2017,11,20,13,33,107.00
2017,11,20,13,34,191.50
2017,11,20,13,35,236.00
2017,11,20,13,36,340.40
2017,11,20,13,37,337.40
2017,11,20,13,38,322.60
2017,11,20,13,39,309.80
2017,11,20,13,40,318.00
2017,11,20,13,41,316.60
2017,11,20,13,42,319.20
2017,11,20,13,43,320.00
2017,11,20,13,44,291.70
2017,11,20,13,45,156.00
2017,11,20,13,46,156.00
2017,11,20,13,47,89.20
2017,11,20,13,48,35.00
2017,11,20,13,49,36.50
2017,11,20,13,50,38.70
2017,11,20,13,51,36.70
2017,11,20,13,52,38.00
2017,11,20,13,53,75.10
2017,11,20,13,54,120.00
2017,11,20,13,55,82.70
2017,11,20,13,56,90.00
2017,11,20,13,57,97.00
2017,11,20,13,58,97.00
2017,11,20,13,59,139.20
2017,11,20,14,00,250.00
2017,11,20,14,01,250.00
2017,11,20,14,02,219.10
2017,11,20,14,03,268.80
2017,11,20,14,04,289.60
2017,11,20,14,05,270.40
2017,11,20,14,06,226.10
2017,11,20,14,07,245.60
2017,11,20,14,08,269.00
2017,11,20,14,09,134.00
2017,11,20,14,10,118.80
2017,11,20,14,11,57.90
2017,11,20,14,12,54.20
2017,11,20,14,13,77.10
2017,11,20,14,14,120.00
2017,11,20,14,15,120.00
2017,11,20,14,16,79.40
2017,11,20,14,17,124.00
2017,11,20,14,18,96.80
2017,11,20,14,19,55.70
2017,11,20,14,20,54.00
2017,11,20,14,21,51.90
2017,11,20,14,22,51.80
2017,11,20,14,23,50.60
2017,11,20,14,24,49.00
2017,11,20,14,25,55.10
2017,11,20,14,26,227.60
2017,11,20,14,27,243.00
2017,11,20,14,28,243.00
2017,11,20,14,29,219.30
2017,11,20,14,30,200.00
2017,11,20,14,31,223.80
2017,11,20,14,32,231.90
2017,11,20,14,33,206.50
2017,11,20,14,34,47.00
2017,11,20,14,35,45.00
2017,11,20,14,36,41.00
2017,11,20,14,37,43.90
2017,11,20,14,38,48.40
2017,11,20,14,39,42.60
2017,11,20,14,40,46.30
2017,11,20,14,41,75.00
2017,11,20,14,42,35.00
2017,11,20,14,43,35.00
2017,11,20,14,44,62.80
2017,11,20,14,45,148.20
2017,11,20,14,46,189.20
2017,11,20,14,47,187.60
2017,11,20,14,48,183.90
2017,11,20,14,49,180.20
2017,11,20,14,50,179.00
2017,11,20,14,51,178.30
2017,11,20,14,52,174.80
2017,11,20,14,53,173.90
2017,11,20,14,54,171.60
2017,11,20,14,55,162.70
2017,11,20,14,56,146.00
2017,11,20,14,57,91.40
2017,11,20,14,58,49.70
2017,11,20,14,59,52.50
2017,11,20,15,00,53.90
2017,11,20,15,01,53.80
2017,11,20,15,02,53.00
2017,11,20,15,03,52.20
2017,11,20,15,04,51.00
2017,11,20,15,05,51.00
2017,11,20,15,06,51.00
2017,11,20,15,07,51.00
2017,11,20,15,08,51.00
2017,11,20,15,09,52.40
2017,11,20,15,10,56.00
2017,11,20,15,11,66.70
2017,11,20,15,12,80.60
2017,11,20,15,13,83.00
2017,11,20,15,14,82.50
2017,11,20,15,15,67.20
2017,11,20,15,16,54.60
2017,11,20,15,17,54.50
2017,11,20,15,18,60.00
2017,11,20,15,19,80.30
2017,11,20,15,20,106.70
2017,11,20,15,21,113.70
2017,11,20,15,22,112.30
2017,11,20,15,23,105.90
2017,11,20,15,24,98.00
2017,11,20,15,25,93.90
2017,11,20,15,26,76.90
2017,11,20,15,27,60.60
2017,11,20,15,28,41.70
2017,11,20,15,29,34.70
2017,11,20,15,30,33.00
2017,11,20,15,31,33.00
2017,11,20,15,32,35.20
2017,11,20,15,33,37.00
2017,11,20,15,34,42.30
2017,11,20,15,35,43.90
2017,11,20,15,36,41.60
2017,11,20,15,37,38.40
2017,11,20,15,38,35.30
2017,11,20,15,39,32.50
2017,11,20,15,40,29.40
2017,11,20,15,41,26.40
2017,11,20,15,42,23.20
2017,11,20,15,43,21.00
2017,11,20,15,44,21.00
2017,11,20,15,45,21.00
2017,11,20,15,46,19.90
2017,11,20,15,47,19.00
2017,11,20,15,48,19.00
2017,11,20,15,49,18.10
2017,11,20,15,50,18.00
2017,11,20,15,51,19.60
2017,11,20,15,52,28.50
2017,11,20,15,53,32.00
2017,11,20,15,54,23.40
2017,11,20,15,55,21.00
2017,11,20,15,56,21.30
2017,11,20,15,57,29.40
2017,11,20,15,58,24.60
2017,11,20,15,59,19.80
2017,11,20,16,00,16.90
2017,11,20,16,01,16.00
2017,11,20,16,02,16.00
2017,11,20,16,03,17.90
2017,11,20,16,04,18.10
2017,11,20,16,05,19.00
2017,11,20,16,06,19.00
2017,11,20,16,07,19.00
2017,11,20,16,08,19.00
2017,11,20,16,09,19.00
2017,11,20,16,10,19.00
2017,11,20,16,11,19.00
2017,11,20,16,12,19.00
2017,11,20,16,13,19.00
2017,11,20,16,14,19.00
2017,11,20,16,15,19.00
2017,11,20,16,16,19.00
2017,11,20,16,17,19.00
2017,11,20,16,18,19.00
2017,11,20,16,19,19.00
2017,11,20,16,20,19.00
2017,11,20,16,21,18.40
2017,11,20,16,22,18.00
2017,11,20,16,23,16.40
2017,11,20,16,24,16.00
2017,11,20,16,25,15.70
2017,11,20,16,26,14.00
2017,11,20,16,27,13.20
2017,11,20,16,28,12.00
2017,11,20,16,29,11.30
2017,11,20,16,30,9.40
2017,11,20,16,31,8.90
2017,11,20,16,32,7.00
2017,11,20,16,33,6.40
2017,11,20,16,34,5.00
2017,11,20,16,35,5.00
2017,11,20,16,36,1.70
2017,11,20,16,37,0.00
2017,11,20,16,38,0.00
2017,11,20,16,39,0.00
2017,11,20,16,40,0.00
2017,11,20,16,41,0.00
2017,11,20,16,42,0.00
2017,11,20,16,43,0.00
2017,11,20,16,44,0.00
2017,11,20,16,45,0.00
2017,11,20,16,46,0.00
2017,11,20,16,47,0.00
2017,11,20,16,48,0.00
2017,11,20,16,49,0.00
2017,11,20,16,50,0.00
2017,11,20,16,51,0.00
2017,11,20,16,52,0.00
2017,11,20,16,53,0.00
2017,11,20,16,54,0.00
2017,11,20,16,55,0.00
2017,11,20,16,56,0.00
2017,11,20,16,57,0.00
2017,11,20,16,58,0.00
2017,11,20,16,59,0.00
2017,11,20,17,00,0.00
2017,11,20,17,01,0.00
2017,11,20,17,02,0.00
2017,11,20,17,03,0.00
2017,11,20,17,04,0.00
2017,11,20,17,05,0.00
2017,11,20,17,06,0.00
2017,11,20,17,07,0.00
2017,11,20,17,08,0.00
2017,11,20,17,09,0.00
2017,11,20,17,10,0.00
2017,11,20,17,11,0.00
2017,11,20,17,12,0.00
2017,11,20,17,13,0.00
2017,11,20,17,14,0.00
2017,11,20,17,15,0.00
2017,11,20,17,16,0.00
2017,11,20,17,17,0.00
2017,11,20,17,18,0.00
2017,11,20,17,19,0.00
2017,11,20,17,20,0.00
2017,11,20,17,21,0.00
2017,11,20,17,22,0.00
2017,11,20,17,23,0.00
2017,11,20,17,24,0.00
2017,11,20,17,25,0.00
2017,11,20,17,26,0.00
2017,11,20,17,27,0.00
2017,11,20,17,28,0.00
2017,11,20,17,29,0.00
2017,11,20,17,30,0.00
2017,11,20,17,31,0.00
2017,11,20,17,32,0.00